Weather in Silchar

India     24°48′59″N   92°47′49″E
temp.,
°C
wind,
m/s
gust,
m/s
humid.,
%
clouds,
%
prec.,
mm/h
press.,
hPa
HPBL,
m
18 may, tue
tue1823:30+25ene227227 0.1 100534
02:30+25wnw007788 0.0 100511
05:30+25e128584 2.2 100680
08:30+28n117285 1.9 1008499
11:30+28n338197 7.8 1006528
14:30+34nw3461100 0.4 1003820
17:30+31ene2269100 0.4 100143
20:30+29ene1173100 0.0 100314
19 may, wed
wed1923:30+25ese3695100 3.7 1005195
02:30+25n1196100 2.8 100445
05:30+25wsw139294 3.9 1007154
08:30+26ne128557 1.4 1007202
11:30+27n2280100 3.1 1006342
14:30+30nw2373100 2.6 1003491
17:30+26w6991100 8.1 1004275
20:30+23e3494100 2.8 1006124
20 may, thu
thu2023:30+24ne1193100 2.8 100530
02:30+24ene129394 0.8 100549
05:30+24ne129287 1.0 100796
08:30+27nne0184100 2.1 1008514
11:30+29sw5780100 5.3 1007836
14:30+30n127155 0.7 1004737
17:30+28ese2285100 3.7 100442
20:30+25ene2393100 1.5 100555
21 may, fri
fri2123:30+24e119497 2.8 100518
02:30+25ese1195100 2.0 100435
05:30+25ene1294100 3.5 100590
08:30+30s1375100 0.3 1007815
11:30+32nnw446688 2.1 1004996
14:30+29wsw91284100 2.8 1004724
17:30+24ese2493100 5.0 1004232
20:30+23ene2495100 0.1 100494
22 may, sat
sat2223:30+23w1197100 3.1 100526
02:30+23e2298100 1.3 100462
05:30+24ene239586 1.6 1005133
08:30+29e117874 0.3 1006568
11:30+33nw346037 0.5 10041350
14:30+33nw446172 0.1 10011043
17:30+30nnw227610 0.2 100044
20:30+27ne228011 0.2 100218